TimeCST,TemperatureF,Dew PointF,Humidity,Sea Level PressureIn,VisibilityMPH,Wind Direction,Wind SpeedMPH,Gust SpeedMPH,PrecipitationIn,Events,Conditions,WindDirDegrees,DateUTC
12:01 AM,24.8,24.8,100,30.47,2.5,SE,5.8,-,N/A,,Clear,140,2012-11-17 06:01:00
12:04 AM,24.8,24.8,100,30.46,3.0,SE,5.8,-,N/A,,Clear,140,2012-11-17 06:04:00
12:19 AM,24.8,23.0,93,30.47,2.5,SE,3.5,-,N/A,,Clear,130,2012-11-17 06:19:00
12:20 AM,24.8,23.0,93,30.47,1.5,ESE,3.5,-,N/A,,Clear,120,2012-11-17 06:20:00
12:21 AM,24.8,23.0,93,30.47,1.0,ESE,3.5,-,N/A,,Clear,120,2012-11-17 06:21:00
12:22 AM,24.8,23.0,93,30.47,0.8,ESE,3.5,-,N/A,,Clear,120,2012-11-17 06:22:00
12:23 AM,23.0,23.0,100,30.47,0.5,ESE,3.5,-,N/A,Fog,Light Freezing Fog,120,2012-11-17 06:23:00
12:26 AM,24.8,23.0,93,30.43,0.2,ESE,3.5,-,N/A,Fog,Light Freezing Fog,110,2012-11-17 06:26:00
12:35 AM,26.6,26.6,100,30.43,0.5,ESE,4.6,-,N/A,Fog,Light Freezing Fog,120,2012-11-17 06:35:00
12:39 AM,26.6,24.8,93,30.43,0.5,ESE,5.8,-,N/A,Fog,Light Freezing Fog,120,2012-11-17 06:39:00
12:40 AM,26.6,24.8,93,30.43,0.8,ESE,5.8,-,N/A,,Mist,120,2012-11-17 06:40:00
12:44 AM,26.6,26.6,100,30.43,0.5,ESE,6.9,-,N/A,Fog,Light Freezing Fog,120,2012-11-17 06:44:00
12:49 AM,26.6,26.6,100,30.43,0.8,SE,6.9,-,N/A,,Mist,130,2012-11-17 06:49:00
12:51 AM,28.4,26.6,93,30.43,1.0,ESE,6.9,-,N/A,,Mist,120,2012-11-17 06:51:00
12:53 AM,28.4,26.6,93,30.43,1.2,ESE,6.9,-,N/A,,Mostly Cloudy,120,2012-11-17 06:53:00
12:55 AM,28.4,27.5,96,30.43,1.0,ESE,6.9,-,N/A,,Mist,120,2012-11-17 06:55:00
12:56 AM,28.4,28.4,100,30.43,1.0,ESE,6.9,-,N/A,,Light Freezing Drizzle,120,2012-11-17 06:56:00
12:57 AM,28.4,28.4,100,30.43,0.8,ESE,6.9,-,N/A,,Light Freezing Drizzle,120,2012-11-17 06:57:00
12:59 AM,28.4,28.4,100,30.43,0.5,ESE,6.9,-,N/A,Fog,Light Freezing Drizzle,120,2012-11-17 06:59:00
1:03 AM,30.2,28.4,93,30.43,0.2,ESE,6.9,-,N/A,Fog,Light Freezing Drizzle,120,2012-11-17 07:03:00
1:55 AM,30.0,29.5,98,30.47,0.2,Calm,Calm,-,0.00,Fog,Light Freezing Drizzle,0,2012-11-17 07:55:00
2:07 AM,30.2,30.2,100,30.46,0.2,SE,8.1,-,N/A,Fog,Light Freezing Fog,140,2012-11-17 08:07:00
2:55 AM,30.9,30.4,98,30.47,0.2,Calm,Calm,-,0.00,Fog,Light Freezing Fog,0,2012-11-17 08:55:00
3:11 AM,30.2,30.2,100,30.46,0.2,Calm,Calm,-,N/A,Fog,Light Freezing Drizzle,0,2012-11-17 09:11:00
3:27 AM,30.2,30.2,100,30.47,0.2,Calm,Calm,-,N/A,Fog,Light Freezing Fog,0,2012-11-17 09:27:00
3:55 AM,30.4,29.8,98,30.47,0.2,Calm,Calm,-,0.00,Fog,Light Freezing Fog,0,2012-11-17 09:55:00
4:55 AM,31.1,30.6,98,30.48,0.2,SE,5.8,-,N/A,Fog,Light Freezing Fog,130,2012-11-17 10:55:00
4:56 AM,32.0,30.2,93,30.47,0.2,SE,5.8,-,N/A,Fog,Light Freezing Drizzle,130,2012-11-17 10:56:00
5:55 AM,30.7,30.2,98,30.48,0.2,ESE,3.5,-,0.00,Fog,Light Freezing Drizzle,120,2012-11-17 11:55:00
5:58 AM,30.2,30.2,100,30.48,0.2,ESE,3.5,-,N/A,Fog,Light Freezing Fog,120,2012-11-17 11:58:00
6:55 AM,30.4,29.8,98,30.48,0.2,ESE,5.8,-,0.00,Fog,Light Freezing Fog,110,2012-11-17 12:55:00
7:55 AM,30.6,30.0,98,30.49,0.2,SE,4.6,-,N/A,Fog,Light Freezing Fog,130,2012-11-17 13:55:00
8:48 AM,32.0,30.2,93,30.45,0.5,SE,9.2,-,N/A,Fog,Fog,130,2012-11-17 14:48:00
8:55 AM,32.0,30.2,93,30.48,0.5,SE,9.2,-,N/A,Fog,Fog,130,2012-11-17 14:55:00
9:07 AM,32.0,32.0,100,30.45,1.0,SE,9.2,-,N/A,,Mostly Cloudy,130,2012-11-17 15:07:00
9:19 AM,32.0,32.0,100,30.45,1.5,SE,6.9,-,N/A,,Mostly Cloudy,140,2012-11-17 15:19:00
9:25 AM,33.8,32.0,93,30.45,2.0,SE,5.8,-,N/A,,Mostly Cloudy,140,2012-11-17 15:25:00
9:51 AM,35.6,33.8,93,30.44,3.0,SE,6.9,-,N/A,,Scattered Clouds,130,2012-11-17 15:51:00
9:55 AM,35.6,35.6,100,30.48,4.0,SE,5.8,-,N/A,,Scattered Clouds,130,2012-11-17 15:55:00
10:55 AM,42.8,41.0,93,30.47,10.0,SE,5.8,-,N/A,,Scattered Clouds,140,2012-11-17 16:55:00
11:55 AM,50.0,35.6,58,30.43,10.0,South,9.2,-,N/A,,Scattered Clouds,170,2012-11-17 17:55:00
12:55 PM,53.6,33.8,47,30.42,10.0,South,12.7,17.3,N/A,,Mostly Cloudy,180,2012-11-17 18:55:00
1:55 PM,52.9,34.3,49,30.40,10.0,South,11.5,-,N/A,,Clear,180,2012-11-17 19:55:00
2:55 PM,52.9,34.7,50,30.39,10.0,SSE,9.2,-,N/A,,Partly Cloudy,160,2012-11-17 20:55:00
3:55 PM,52.0,34.9,52,30.40,10.0,South,5.8,-,N/A,,Clear,170,2012-11-17 21:55:00
4:55 PM,46.2,34.5,64,30.40,10.0,ESE,6.9,-,N/A,,Clear,110,2012-11-17 22:55:00
5:55 PM,42.8,33.6,70,30.40,10.0,ESE,3.5,-,N/A,,Clear,120,2012-11-17 23:55:00
6:55 PM,39.6,32.7,76,30.40,10.0,SE,8.1,-,N/A,,Partly Cloudy,130,2012-11-18 00:55:00
7:55 PM,36.7,31.6,82,30.40,10.0,East,5.8,-,N/A,,Mostly Cloudy,90,2012-11-18 01:55:00
8:55 PM,33.6,30.2,87,30.41,10.0,East,6.9,-,N/A,,Mostly Cloudy,90,2012-11-18 02:55:00
9:55 PM,37.9,31.8,79,30.40,10.0,ESE,5.8,-,N/A,,Mostly Cloudy,120,2012-11-18 03:55:00
10:55 PM,40.5,31.6,71,30.39,10.0,SE,5.8,-,N/A,,Partly Cloudy,130,2012-11-18 04:55:00
11:55 PM,39.7,31.3,72,30.39,10.0,SE,5.8,-,N/A,,Scattered Clouds,130,2012-11-18 05:55:00